This demonstration page uses our WeatherBlox Daily Observations layout. Learn more.

Left ArrowRight Arrow

Hourly Observations for November 10, 2020

Temp ( °F °C ) Dew Point ( °F °C ) Humidity (%) Winds ( mph kmh ) Pressure ( in mb ) Visibility ( mi km ) Precip ( " mm )
12:52 am 00:52 Cloudy with Heavy Rain 34 1.1 33 0.6 97 97 NW 17 28 29.92 1013 3 5 0.30 7.62
1:19 am 01:19 Cloudy with Strong Thunderstorms 33 0.6 32 0 96 96 NNW 12 19 29.95 1014 4 6 0.22 5.59
1:28 am 01:28 Cloudy with Strong Thunderstorms 33 0.6 32 0 96 96 N 12 19 29.93 1014 3 5 0.33 8.38
1:40 am 01:40 Cloudy with Heavy Rain 33 0.6 32 0 96 96 N 15 24 29.91 1013 4 6 0.39 9.91
1:52 am 01:52 Cloudy with Rain 33 0.6 32 0 96 96 N 16 26 29.88 1012 6 10 0.43 10.92
2:26 am 02:26 Cloudy with Rain 33 0.6 32 0 96 96 NNW 14 22 29.93 1014 8 13 0.06 1.52
2:52 am 02:52 Cloudy with Rain 34 1.1 32 0 92 92 N 14 22 29.90 1013 7 11 0.17 4.32
3:38 am 03:38 Cloudy 34 1.1 33 0.6 97 97 N 15 24 29.83 1010 10 16 0.09 2.29
3:48 am 03:48 Cloudy 34 1 34 1 100 100 N 15 24 29.83 1010 10 16 0.09 2.29
3:52 am 03:52 Cloudy 34 1.1 32 0 92 92 N 13 20 29.81 1010 10 16 0.09 2.29
4:38 am 04:38 Cloudy 35 1.7 32 0 89 89 N 10 17 29.85 1011 10 16 0.00 0.00
4:52 am 04:52 Cloudy 34 1.1 32 0 92 92 N 13 20 29.83 1010 10 16 0.00 0.00
5:52 am 05:52 Cloudy 34 1.1 32 0 92 92 N 12 19 29.80 1009 10 16 0.00 0.00
6:52 am 06:52 Cloudy with Light Rain 34 1.1 32 0 92 92 N 12 19 29.80 1009 10 16 0.00 0.00
7:52 am 07:52 Cloudy 33 0.6 32 0 96 96 NNE 13 20 29.76 1008 10 16 0.02 0.51
8:52 am 08:52 Cloudy 34 1.1 32 0 92 92 NNE 10 17 29.73 1007 10 16 0.00 0.00
9:37 am 09:37 Cloudy with Light Rain 34 1.1 32 0 92 92 WNW 15 24 29.80 1009 3 4 0.00 0.00
9:47 am 09:47 Cloudy with Light Rain 34 1 32 0 93 93 WNW 16 26 29.80 1009 1 2 0.01 0.25
9:52 am 09:52 Cloudy with Rain 33 0.6 32 0 96 96 WNW 15 24 29.78 1008 1 1 0.02 0.51
10:12 am 10:12 Cloudy with Light Rain 34 1.1 33 0.6 97 97 WNW 15 24 29.80 1009 1 2 0.04 1.02
10:19 am 10:19 Cloudy with Light Rain 34 1.1 32 0 92 92 NW 14 22 29.79 1009 1 2 0.04 1.02
10:33 am 10:33 Cloudy with Light Rain 34 1.1 32 0 92 92 NW 16 26 29.80 1009 3 4 0.05 1.27
10:42 am 10:42 Cloudy with Light Rain 34 1.1 32 0 92 92 NW 18 30 29.80 1009 4 6 0.05 1.27
10:52 am 10:52 Cloudy with Mist and Fog 34 1.1 32 0 92 92 NW 16 26 29.78 1008 4 6 0.05 1.27
11:18 am 11:18 Cloudy with Light Rain 33 0.6 31 -0.6 92 92 NW 17 28 29.82 1010 3 4 0.00 0.00
11:46 am 11:46 Cloudy with Drizzle 34 1 30 -1 87 87 NNW 16 26 29.80 1009 4 6 0.00 0.00
11:52 am 11:52 Cloudy with Drizzle 33 0.6 30 -1.1 89 89 NNW 17 28 29.76 1008 4 6 0.00 0.00
12:02 pm 12:02 Cloudy with Drizzle 33 0.6 31 -0.6 92 92 NW 17 28 29.79 1009 5 8 0.00 0.00
12:29 pm 12:29 Cloudy 32 0 30 -1.1 92 92 NNW 17 28 29.78 1009 10 16 0.00 0.00
12:52 pm 12:52 Cloudy 32 0 28 -2.2 85 85 NW 18 30 29.76 1008 10 16 0.00 0.00
1:52 pm 13:52 Cloudy 32 0 27 -2.8 82 82 WNW 15 24 29.81 1009 10 16 0.00 0.00
2:52 pm 14:52 Cloudy 32 0 27 -2.8 82 82 NW 14 22 29.81 1010 10 16 0.00 0.00
3:52 pm 15:52 Cloudy 32 0 25 -3.9 75 75 WNW 20 31 29.87 1012 10 16 0.00 0.00
4:52 pm 16:52 Mostly Cloudy 30 -1.1 24 -4.4 79 79 WNW 16 26 29.89 1012 10 16 0.00 0.00
5:20 pm 17:20 Partly Cloudy 30 -1.1 24 -4.4 79 79 W 12 19 29.94 1014 10 16 0.00 0.00
5:52 pm 17:52 Mostly Cloudy 30 -1.1 25 -3.9 82 82 WNW 12 19 29.92 1013 10 16 0.00 0.00
6:52 pm 18:52 Cloudy 30 -1.1 24 -4.4 79 79 WNW 17 28 29.94 1014 10 16 0.00 0.00
7:19 pm 19:19 Partly Cloudy 30 -1.1 24 -4.4 79 79 WNW 10 17 29.98 1015 10 16 0.00 0.00
7:52 pm 19:52 Partly Cloudy 29 -1.7 24 -4.4 82 82 WNW 7 11 29.96 1014 10 16 0.00 0.00
8:52 pm 20:52 Clear 29 -1.7 25 -3.9 85 85 WSW 7 11 29.99 1016 10 16 0.00 0.00
9:52 pm 21:52 Clear 29 -1.7 24 -4.4 82 82 Calm 30.00 1016 10 16 0.00 0.00
10:52 pm 22:52 Clear 28 -2.2 24 -4.4 85 85 Calm 30.01 1016 10 16 0.00 0.00
11:52 pm 23:52 Clear 26 -3.3 23 -5 88 88 SSE 3 6 30.01 1016 10 16 0.00 0.00

Powered by AerisWeather